Luverne, MN

4:36 AM CDT on September 23, 2017 (GMT -0500)
Luverne

Weather History for KLYV - February, 2013

Change the Weather History Date:

Thursday, February 28, 2013

  Actual Average (KPQN) Record (KPQN)
Temperature  
Mean Temperature 24 °F -  
Max Temperature 28 °F 28 °F 46 °F (2016)
Min Temperature 21 °F 13 °F -9 °F (2001)
Degree Days  
Heating Degree Days 40    
Moisture  
Dew Point 20 °F    
Average Humidity 80    
Maximum Humidity 86    
Minimum Humidity 74    
Precipitation  
Precipitation 0.00 in - - ()
Sea Level Pressure  
Sea Level Pressure 30.17 in    
Wind  
Wind Speed 11 mph (NNW)    
Max Wind Speed 18 mph    
Max Gust Speed 24 mph    
Visibility 10 miles    
Events Snow    
Averages and records for this station are not official NWS values.
T = Trace of Precipitation, MM = Missing Value Source: NWS Daily Summary

Daily Weather History Graph

Daily Weather History Graph

Search for Another Location

Airport or City:

Trip Planner

Search our weather history database for the weather conditions in past years. The results will help you decide how hot, cold, wet, or windy it might be!

Date:

Astronomy

Feb. 28, 2013 Rise Set
Actual Time 7:02 AM CST 6:12 PM CST
Civil Twilight 6:33 AM CST 6:41 PM CST
Nautical Twilight 6:00 AM CST 7:14 PM CST
Astronomical Twilight 5:27 AM CST 7:48 PM CST
Moon 9:49 PM CST (2/28) 8:05 AM CST (2/28)
Length of Visible Light 12h 07m
Length of Day
11h 10m
Waning Gibbous, 90% of the Moon is Illuminated
Feb 28
Waning Gibbous
Mar 4
Last Quarter
Mar 11
New
Mar 19
First Quarter
Mar 27
Full

Hourly Weather History & Observations

Time (CST) Temp. Windchill Dew Point Humidity Pressure Visibility Wind Dir Wind Speed Gust Speed Precip Events Conditions
12:17 AM 26.6 °F 14.7 °F 21.2 °F 80% 30.08 in 10.0 mi North 15.0 mph 21.9 mph N/A   Mostly Cloudy
12:36 AM 26.6 °F 13.4 °F 21.2 °F 80% 30.09 in 10.0 mi North 18.4 mph 24.2 mph N/A   Mostly Cloudy
1:16 AM 26.6 °F 17.5 °F 21.2 °F 80% 30.09 in 10.0 mi North 9.2 mph 17.3 mph N/A   Overcast
1:37 AM 26.6 °F 16.8 °F 21.2 °F 80% 30.10 in 10.0 mi North 10.4 mph - N/A   Overcast
1:57 AM 26.6 °F 17.5 °F 21.2 °F 80% 30.11 in 10.0 mi North 9.2 mph - N/A   Overcast
2:16 AM 24.8 °F 13.4 °F 21.2 °F 86% 30.11 in 10.0 mi North 12.7 mph - N/A   Overcast
2:37 AM 24.8 °F 13.4 °F 21.2 °F 86% 30.11 in 10.0 mi North 12.7 mph 18.4 mph N/A   Overcast
2:57 AM 24.8 °F 15.3 °F 21.2 °F 86% 30.11 in 10.0 mi North 9.2 mph - N/A   Overcast
3:16 AM 24.8 °F 13.4 °F 21.2 °F 86% 30.11 in 10.0 mi North 12.7 mph - N/A   Overcast
3:56 AM 23.0 °F 11.1 °F 19.4 °F 86% 30.12 in 10.0 mi North 12.7 mph - N/A   Overcast
4:17 AM 23.0 °F 12.4 °F 19.4 °F 86% 30.12 in 10.0 mi North 10.4 mph - N/A   Overcast
4:37 AM 23.0 °F 13.1 °F 19.4 °F 86% 30.13 in 10.0 mi NNW 9.2 mph - N/A   Overcast
4:56 AM 23.0 °F 13.1 °F 19.4 °F 86% 30.13 in 7.0 mi NNW 9.2 mph - N/A   Overcast
5:17 AM 23.0 °F 13.1 °F 19.4 °F 86% 30.14 in 7.0 mi North 9.2 mph - N/A   Overcast
5:37 AM 23.0 °F 13.1 °F 19.4 °F 86% 30.14 in 7.0 mi North 9.2 mph - N/A   Overcast
5:56 AM 23.0 °F 14.7 °F 19.4 °F 86% 30.14 in 7.0 mi North 6.9 mph - N/A   Overcast
6:17 AM 23.0 °F 13.1 °F 19.4 °F 86% 30.14 in 7.0 mi North 9.2 mph - N/A   Overcast
6:36 AM 21.2 °F 10.1 °F 17.6 °F 86% 30.15 in 10.0 mi NNW 10.4 mph - N/A   Overcast
6:56 AM 21.2 °F 10.1 °F 17.6 °F 86% 30.15 in 10.0 mi NNW 10.4 mph - N/A   Overcast
7:17 AM 21.2 °F 11.7 °F 17.6 °F 86% 30.15 in 10.0 mi NNW 8.1 mph - N/A   Overcast
7:36 AM 21.2 °F 12.6 °F 17.6 °F 86% 30.16 in 10.0 mi NNW 6.9 mph - N/A   Overcast
7:57 AM 21.2 °F 12.6 °F 17.6 °F 86% 30.16 in 10.0 mi NNW 6.9 mph - N/A   Overcast
8:16 AM 23.0 °F 15.8 °F 19.4 °F 86% 30.17 in 10.0 mi NNW 5.8 mph - N/A   Overcast
8:37 AM 23.0 °F 13.1 °F 19.4 °F 86% 30.17 in 10.0 mi NNW 9.2 mph - N/A   Overcast
8:57 AM 23.0 °F 13.9 °F 19.4 °F 86% 30.17 in 10.0 mi NNW 8.1 mph - N/A   Overcast
9:16 AM 23.0 °F 12.4 °F 19.4 °F 86% 30.17 in 10.0 mi NNW 10.4 mph - N/A   Overcast
9:37 AM 24.8 °F 14.0 °F 19.4 °F 80% 30.17 in 10.0 mi NW 11.5 mph - N/A   Overcast
9:57 AM 24.8 °F 14.0 °F 19.4 °F 80% 30.18 in 10.0 mi NNW 11.5 mph - N/A   Overcast
10:16 AM 24.8 °F 13.4 °F 19.4 °F 80% 30.19 in 10.0 mi NNW 12.7 mph 17.3 mph N/A   Overcast
10:37 AM 26.6 °F 16.2 °F 19.4 °F 74% 30.19 in 10.0 mi NNW 11.5 mph - N/A   Overcast
10:57 AM 26.6 °F 15.2 °F 21.2 °F 80% 30.19 in 10.0 mi NNW 13.8 mph - N/A   Overcast
11:16 AM 26.6 °F 15.7 °F 21.2 °F 80% 30.20 in 10.0 mi NNW 12.7 mph - N/A   Overcast
11:37 AM 26.6 °F 16.2 °F 21.2 °F 80% 30.20 in 10.0 mi NNW 11.5 mph - N/A   Overcast
11:57 AM 26.6 °F 16.2 °F 21.2 °F 80% 30.20 in 10.0 mi NNW 11.5 mph - N/A   Overcast
12:16 PM 26.6 °F 15.2 °F 21.2 °F 80% 30.19 in 10.0 mi NNW 13.8 mph - N/A   Overcast
12:37 PM 28.4 °F 18.5 °F 21.2 °F 74% 30.19 in 10.0 mi NNW 11.5 mph - N/A   Overcast
12:57 PM 28.4 °F 19.1 °F 21.2 °F 74% 30.19 in 10.0 mi NNW 10.4 mph - N/A   Overcast
1:16 PM 28.4 °F 19.1 °F 21.2 °F 74% 30.19 in 10.0 mi NNW 10.4 mph - N/A   Overcast
1:37 PM 28.4 °F 18.5 °F 21.2 °F 74% 30.18 in 10.0 mi NNW 11.5 mph - N/A   Overcast
1:57 PM 28.4 °F 19.1 °F 21.2 °F 74% 30.18 in 10.0 mi NNW 10.4 mph - N/A   Overcast
2:16 PM 28.4 °F 18.5 °F 21.2 °F 74% 30.18 in 10.0 mi NNW 11.5 mph - N/A   Overcast
2:37 PM 28.4 °F 20.4 °F 21.2 °F 74% 30.18 in 7.0 mi NNW 8.1 mph - N/A   Overcast
2:57 PM 28.4 °F 19.1 °F 21.2 °F 74% 30.18 in 10.0 mi North 10.4 mph - N/A   Overcast
3:16 PM 28.4 °F 19.7 °F 21.2 °F 74% 30.18 in 7.0 mi North 9.2 mph - N/A   Overcast
3:37 PM 28.4 °F 19.1 °F 21.2 °F 74% 30.18 in 10.0 mi North 10.4 mph - N/A   Overcast
3:56 PM 28.4 °F 20.4 °F 21.2 °F 74% 30.18 in 10.0 mi NNW 8.1 mph - N/A   Overcast
4:16 PM 26.6 °F 17.5 °F 21.2 °F 80% 30.18 in 10.0 mi NNW 9.2 mph - N/A   Overcast
4:37 PM 26.6 °F 17.5 °F 21.2 °F 80% 30.17 in 7.0 mi NNW 9.2 mph - N/A   Overcast
4:57 PM 26.6 °F 16.8 °F 21.2 °F 80% 30.18 in 10.0 mi NNW 10.4 mph - N/A   Overcast
5:16 PM 26.6 °F 16.8 °F 19.4 °F 74% 30.18 in 10.0 mi NNW 10.4 mph - N/A   Overcast
5:37 PM 26.6 °F 17.5 °F 21.2 °F 80% 30.19 in 10.0 mi NNW 9.2 mph - N/A   Overcast
5:56 PM 26.6 °F 16.2 °F 21.2 °F 80% 30.19 in 10.0 mi NNW 11.5 mph - N/A   Overcast
6:17 PM 26.6 °F 17.5 °F 21.2 °F 80% 30.20 in 10.0 mi NNW 9.2 mph - N/A   Overcast
6:36 PM 26.6 °F 19.1 °F 19.4 °F 74% 30.20 in 10.0 mi NNW 6.9 mph - N/A   Overcast
6:56 PM 26.6 °F 19.1 °F 19.4 °F 74% 30.21 in 10.0 mi North 6.9 mph - N/A   Overcast
7:17 PM 26.6 °F 18.2 °F 19.4 °F 74% 30.21 in 10.0 mi North 8.1 mph - N/A   Overcast
7:36 PM 26.6 °F 17.5 °F 19.4 °F 74% 30.21 in 10.0 mi North 9.2 mph - N/A   Overcast
7:56 PM 26.6 °F 18.2 °F 19.4 °F 74% 30.22 in 10.0 mi North 8.1 mph - N/A   Overcast
8:17 PM 26.6 °F 20.0 °F 19.4 °F 74% 30.22 in 10.0 mi North 5.8 mph - N/A Snow Light Snow
8:36 PM 26.6 °F 21.2 °F 21.2 °F 80% 30.22 in 7.0 mi NNW 4.6 mph - N/A Snow Light Snow
8:56 PM 26.6 °F 20.0 °F 21.2 °F 80% 30.22 in 5.0 mi NNW 5.8 mph - N/A Snow Light Snow
9:17 PM 24.8 °F 17.9 °F 21.2 °F 86% 30.22 in 7.0 mi North 5.8 mph - N/A Snow Light Snow
9:36 PM 26.6 °F 18.2 °F 21.2 °F 80% 30.22 in 7.0 mi North 8.1 mph - N/A Snow Light Snow
9:57 PM 26.6 °F 19.1 °F 19.4 °F 74% 30.22 in 10.0 mi North 6.9 mph - N/A   Overcast
10:17 PM 26.6 °F 20.0 °F 21.2 °F 80% 30.22 in 10.0 mi NNW 5.8 mph - N/A   Overcast
10:36 PM 26.6 °F 18.2 °F 19.4 °F 74% 30.22 in 10.0 mi North 8.1 mph - N/A   Overcast
10:57 PM 26.6 °F 18.2 °F 19.4 °F 74% 30.21 in 10.0 mi NNW 8.1 mph - N/A   Overcast
11:16 PM 24.8 °F 16.1 °F 19.4 °F 80% 30.21 in 10.0 mi North 8.1 mph - N/A   Overcast
11:37 PM 23.0 °F 13.9 °F 19.4 °F 86% 30.21 in 10.0 mi NNW 8.1 mph - N/A   Overcast
11:56 PM 23.0 °F 14.7 °F 19.4 °F 86% 30.21 in 10.0 mi NNW 6.9 mph - N/A   Overcast